Preview of NWS' New Version of Forecast
This preview is not operational and should not be used for support decisions.

Regional Weather Roundup (RWR)

Issued by Gray - Portland, ME (GYX)

                            
000
ASUS41 KGYX 231905
RWRGYX
WEATHER ROUNDUP FOR MAINE AND NEW HAMPSHIRE
NATIONAL WEATHER SERVICE GRAY ME
300 PM EDT TUE APR 23 2019

MEZ002-005-006-010-012-015-018-020-021-024-026-027-029-232000-
MAINE
  
CITY           SKY/WX    TMP DP  RH WIND       PRES   REMARKS
PORTLAND       CLOUDY    47  42  83 N12       29.93F                  
WISCASSET      CLOUDY    43  41  93 VRB3      29.95F FOG              
FRYEBURG       NOT AVBL                                               
AUGUSTA        CLOUDY    41  39  93 N14       29.96F                  
BANGOR         CLOUDY    44  41  89 N12       29.93F                  
GREENVILLE       N/A     40  34  79 E8        29.93F                  
MILLINOCKET    CLOUDY    41  38  89 NE8       29.99F FOG              
HOULTON        LGT RAIN  40  36  86 NE15G22   29.98F                  
PRESQUE ISLE   NOT AVBL                                               
FRENCHVILLE    LGT RAIN  43  29  57 E10G20    30.04F                  
CARIBOU        CLOUDY    39  36  87 NE13G23   30.03F                  
$$

NHZ002-005-008-009-011-012-014-232000-
NEW HAMPSHIRE
  
CITY           SKY/WX    TMP DP  RH WIND       PRES   REMARKS
ROCHESTER      CLOUDY    54  46  74 VRB7      29.91F                  
MANCHESTER     CLOUDY    59  47  64 E5        29.88F                  
CONCORD        CLOUDY    58  46  64 N3        29.89F                  
PLYMOUTH       PTSUNNY   58  49  70 NE3       29.88F                  
BERLIN         CLOUDY    53  43  68 CALM      29.90F                  
WHITEFIELD     CLOUDY    56  44  64 E6        29.89F                  
JAFFREY        FAIR      60  49  66 CALM      29.89F                  
LEBANON        FAIR      68  50  52 NE8       29.83F                  
MT WASHINGTON  FOG       39  39 100 N22         N/A  VSB 3/16         
$$

VTZ005-007-008-232000-
VERMONT
  
CITY           SKY/WX    TMP DP  RH WIND       PRES   REMARKS
ST JOHNSBURY     N/A     65  46  50 MISG      29.83F                  
MONTPELIER     FAIR      66  45  46 VRB5      29.87                   
$$

MAZ007-012-024-CTZ003-RIZ002-NYZ038-NYZ072-232000-
SOUTHERN NEW ENGLAND AND NY
  
CITY           SKY/WX    TMP DP  RH WIND       PRES   REMARKS
BOSTON         CLOUDY    51  46  83 E13       29.92F                  
WORCESTER      FAIR      59  52  77 SE5       29.89F                  
NANTUCKET      CLOUDY    50  44  80 N22G32    29.91S                  
PROVIDENCE     PTSUNNY   60  51  72 N6        29.91S                  
HARTFORD       FAIR      73  51  46 SE9       29.85F                  
ALBANY         PTSUNNY   72  44  36 E3        29.84F                  
NEW YORK CITY  PTSUNNY   71  48  43 S14       29.88F                  
$$

ANZ081-ANZ082-ANZ150-NHZ014-MEZ023>029-232000-
COASTAL MARINE OBSERVATIONS
  
STATION/POSITION TIME  TEMP    WIND        PRES    WAVE
                       AIR SEA DIR/SP/G            HT/PER
                 (UTC) (F)     (DEG/KT/KT) (MB)    (FT/S)
ISLE OF SHOALS   1800   45      40/ 14/ 16 1013.2F
$$

.............KEY..............
   WCI - WIND CHILL
   TC  - TEMPERATURE IN CELSIUS
   VSB - VISIBILITY IN MILES
   HX  - HEAT INDEX
   FAIR- INDICATES FEW OR NO CLOUDS BELOW 12,000 FT, WITH NO 
         SIGNIFICANT WEATHER AND/OR OBSTRUCTIONS TO VISIBILITY.